{"data":{"norad_id":84575,"epoch":"2026-05-20T13:00:14.458464Z","epoch_age_seconds":450425,"freshness":"STALE","line1":"1 84575U          26140.54183401 -.00000050  00000+0  20921-2 0  9999","line2":"2 84575  18.1332 104.4722 7129854 120.7457 327.3564  2.19856161 68958","mean_motion":2.19856161,"eccentricity":0.7129854,"inclination_deg":18.1332,"raan_deg":104.4722,"arg_perigee_deg":120.7457,"mean_anomaly_deg":327.3564,"bstar":0.0020921,"rev_number":6895,"period_min":654.97368527234,"perigee_km":792.31836925328,"apogee_km":36417.195916453,"semimajor_km":24982.894142853,"source":"CELESTRAK","updated_at":"2026-05-25T13:38:11.427734Z"}}